Location: Unspecified
(0.0000°N, 0.0000°E)
Time: 14:56:45
(UTC+00:00)

FENGYUN 1C DEB - Pass Details

Date: 16 February 2026
Orbit: 814 x 927 km, 98.2° (Epoch: 15 July)

Event Time Altitude Azimuth Distance (km) Brightness Sun altitude
Rises 19:53:57 0° 187° (S) 3,386 ? -24.4°
Reaches altitude 10° 19:56:32 10° 197° (SSW) 2,461 ? -25.0°
Maximum altitude 20:01:18 31° 258° (WSW) 1,442 ? -26.2°
Drops below altitude 10° 20:06:09 10° 319° (NW) 2,496 ? -27.4°
Sets 20:08:48 0° 329° (NNW) 3,441 ? -28.0°
